Theta_e
291 290 289 287 286 288 287 289 287 290 289 294 294 291 292 291 289 287 287 286 285 285 285 284 284 284 284 283 283 283 282 281 281 281 281 280 280 279 279 278 278 278 277 276
288 291 288 286 287 289 289 290 290 291 291 294 294 292 290 291 289 288 288 288 287 286 285 284 284 284 284 283 283 283 282 281 281 281 280 280 280 279 279 278 277 277 277 276
285 289 286 284 289 288 288 291 290 287 292 293 294 294 292 291 290 290 290 290 288 287 286 286 285 285 284 284 283 282 282 282 281 281 281 281 280 279 278 278 277 276 276 276
286 286 280 290 295 295 292 292 292 291 293 290 293 296 296 293 291 291 292 291 289 288 288 287 286 285 285 283 282 282 282 282 282 281 281 280 280 279 278 278 277 276 276 275
283 284 287 288 286 288 289 291 296 294 295 296 296 287 293 292 294 295 293 292 291 290 289 288 285 285 284 282 282 282 282 282 282 282 281 280 279 279 279 278 276 276 276 274
283 281 280 286 286 290 292 287 294 295 296 296 292 287 295 296 289 290 291 289 288 287 287 286 285 285 283 282 282 282 282 282 283 283 282 280 281 280 279 278 277 275 275 273
284 284 286 283 281 287 285 286 278 282 285 287 289 294 289 287 287 287 287 287 287 288 287 286 285 284 283 282 282 283 284 284 282 282 282 282 281 279 275 276 274 272 272 271
286 283 281 285 283 287 286 281 283 283 285 287 287 284 284 284 285 285 286 286 286 285 284 284 284 284 282 282 283 281 281 280 280 281 281 281 279 273 272 273 272 270 269 268
285 285 286 285 286 285 284 285 286 286 285 284 283 282 282 282 283 283 284 284 284 285 282 281 282 282 280 279 278 278 279 278 277 277 276 276 275 271 269 270 272 271 271 271
285 285 283 282 283 283 282 283 283 285 284 283 282 281 280 281 281 281 278 280 279 281 279 276 274 277 277 277 276 277 275 274 272 274 271 270 272 272 272 271 271 270 268 268
282 283 282 285 283 284 283 281 281 282 283 282 282 280 280 278 278 278 277 276 278 279 278 275 274 273 272 274 274 273 271 270 270 270 270 268 268 268 269 265 269 263 264 265
282 285 287 286 286 285 285 283 282 282 281 280 281 280 279 278 278 278 277 274 275 273 275 272 272 271 270 271 274 272 270 270 269 270 266 267 266 264 274 273 276 277 275 268
285 285 285 283 285 285 286 283 282 281 281 279 279 278 278 277 277 276 275 275 275 274 273 272 271 269 264 264 268 268 268 267 266 266 266 265 263 265 264 267 277 277 278 279
281 283 283 281 281 284 283 282 280 278 278 278 277 275 275 275 273 274 273 272 272 272 269 267 265 262 259 259 264 261 262 266 266 264 264 263 263 262 262 263 263 261 269 271
277 278 279 279 279 278 278 277 278 277 276 275 273 274 275 274 273 273 270 269 269 267 265 265 263 259 257 259 263 261 263 262 262 262 262 263 262 261 260 259 256 256 257 264
271 275 276 275 275 275 274 273 274 274 273 271 272 272 271 271 269 265 264 263 267 266 260 261 259 256 254 257 259 259 260 262 261 261 260 260 261 260 258 258 256 258 257 256
269 271 270 270 272 272 271 271 272 272 270 270 268 267 268 266 263 261 258 259 260 259 258 258 256 254 254 257 259 259 259 259 259 258 258 257 257 257 257 255 254 252 254 257
263 266 267 266 268 269 267 266 266 266 264 264 264 265 264 262 262 257 254 254 255 254 252 250 249 251 253 253 255 255 256 255 255 254 255 255 254 256 254 253 251 252 253 255
259 260 261 261 261 261 260 260 259 260 260 259 262 259 257 256 256 253 251 254 254 253 251 248 262 253 253 255 254 255 255 254 253 251 254 255 254 251 249 249 251 253 255 255
256 257 257 256 256 255 256 256 256 256 255 256 256 255 253 251 251 252 249 247 245 249 247 247 249 250 250 255 257 254 254 255 256 255 255 255 252 249 252 253 252 250 248 247
253 254 254 254 253 253 252 252 253 253 252 253 254 252 251 247 249 248 251 252 249 246 247 250 250 251 252 254 256 256 253 254 253 253 251 251 251 249 250 248 248 249 249 249
250 251 252 252 252 252 251 251 252 252 252 252 251 251 252 249 249 249 247 250 249 253 251 251 252 255 255 258 255 254 254 254 253 252 251 251 250 250 249 248 248 249 249 247
249 249 251 251 250 248 250 251 251 251 251 251 251 251 252 251 250 252 251 250 249 253 252 252 256 259 259 256 255 254 255 255 256 256 255 254 254 253 251 251 249 248 247 248
249 250 248 247 249 252 251 248 249 249 250 250 250 249 251 252 253 252 253 254 256 256 254 255 257 263 260 256 256 256 256 255 255 254 253 255 253 249 248 249 250 248 248 249
249 248 249 251 253 251 248 247 250 250 251 251 251 251 252 252 250 250 250 251 258 253 253 257 263 262 255 254 255 256 256 255 253 251 253 253 252 250 249 248 248 248 248 248
250 250 251 251 251 251 251 252 251 251 250 251 251 251 252 252 253 253 253 254 253 255 252 252 252 252 253 254 253 253 254 254 254 254 253 253 252 250 248 249 249 249 249 249
251 251 250 251 251 250 249 249 248 247 247 246 248 248 249 250 252 253 253 252 251 251 251 251 252 254 253 254 254 254 254 254 255 254 253 252 252 250 249 250 250 250 250 250
Wind_Speed
23 8 9 10 13 21 24 33 13 34 20 18 14 12 10 7 6 8 10 12 15 15 14 14 14 15 14 14 13 13 13 12 12 11 10 9 10 10 9 9 9 8 8 6
26 18 9 7 11 26 31 29 27 29 34 7 8 6 6 11 10 11 14 17 17 16 16 18 18 17 16 16 16 15 15 14 11 10 10 11 10 10 10 9 8 8 8 8
23 14 4 6 38 11 16 22 23 25 38 7 15 14 12 12 12 15 15 17 17 20 20 18 20 19 19 16 14 14 13 11 11 12 11 10 10 10 11 11 8 9 8 8
17 6 17 27 15 25 27 22 18 20 28 8 14 19 16 7 10 16 16 13 14 15 15 15 14 15 14 14 14 14 12 12 11 11 11 9 10 11 10 9 11 9 9 8
9 15 10 14 5 9 13 31 29 26 29 26 20 3 19 11 16 15 13 14 14 13 13 14 14 14 14 14 15 15 14 14 13 13 12 12 13 12 9 9 8 9 7 8
4 11 13 9 5 6 7 19 12 20 28 24 4 9 22 6 8 11 9 9 11 11 11 15 15 16 16 15 15 15 15 15 14 14 14 14 14 12 9 9 9 7 8 8
18 13 6 4 5 4 12 9 1 0 2 6 8 9 5 1 3 4 5 8 8 13 15 15 15 15 14 14 16 15 11 11 12 14 14 12 9 7 8 7 5 7 8 6
11 12 19 9 3 12 4 1 4 2 3 5 5 3 2 1 5 7 8 8 7 8 7 6 10 12 10 13 6 8 11 12 12 12 9 9 11 6 6 7 7 6 5 4
5 3 3 5 2 2 2 4 3 2 2 3 3 1 2 4 5 5 7 7 6 10 9 6 7 9 10 6 9 10 10 10 9 7 7 8 9 8 4 6 7 7 7 7
3 4 4 4 1 2 2 1 2 1 3 5 3 5 3 4 4 5 4 5 4 9 8 6 4 5 5 7 7 9 8 7 6 8 6 5 4 5 6 7 7 5 5 5
4 4 1 8 8 5 3 2 2 0 2 4 6 4 5 4 4 5 5 4 4 7 7 7 6 6 3 6 8 7 6 5 4 4 5 5 3 4 4 1 5 4 4 4
5 3 4 3 9 9 8 6 6 6 2 1 3 6 5 6 4 5 6 4 6 5 8 6 6 6 5 4 6 8 6 5 5 5 4 4 5 3 5 6 9 9 8 7
2 3 2 1 4 5 8 8 5 3 1 3 3 3 4 4 3 5 6 6 6 6 6 6 6 6 3 3 5 5 6 5 4 4 4 5 3 5 4 3 5 8 9 10
4 1 1 2 2 6 7 4 6 5 4 3 3 4 4 5 4 6 6 5 6 7 7 6 6 5 3 1 5 5 4 6 5 4 4 4 4 3 3 4 4 1 7 6
10 7 3 6 4 5 5 4 5 5 3 3 4 5 6 7 7 6 5 6 7 7 6 6 5 1 4 2 5 5 5 4 4 4 4 5 4 4 3 4 3 2 2 4
10 6 8 10 7 5 5 5 5 3 2 2 4 5 4 6 8 7 6 5 5 5 2 4 4 2 4 3 5 4 4 7 5 5 5 5 5 5 4 4 3 2 2 1
2 4 7 7 7 5 6 5 4 4 4 6 3 4 7 8 8 7 5 5 7 7 5 4 3 4 3 3 4 3 4 4 7 5 4 4 4 4 3 3 3 3 2 2
5 5 5 4 4 4 6 7 6 6 5 4 3 6 6 5 6 5 5 5 8 8 7 5 3 3 5 4 5 3 4 4 4 4 3 4 4 3 3 3 3 3 2 2
6 6 7 8 7 5 5 6 6 5 5 4 6 8 6 6 6 5 3 6 6 5 2 4 4 6 5 4 5 4 5 5 4 3 4 5 4 3 3 3 3 2 2 1
5 5 6 6 8 7 5 5 5 6 6 6 7 8 8 7 5 7 5 5 1 2 0 3 4 4 3 5 6 4 4 4 4 4 3 3 3 3 2 3 3 3 2 3
5 5 6 7 8 7 7 5 5 7 6 7 9 8 7 4 6 4 5 4 4 2 3 4 3 2 3 4 4 4 4 3 3 3 2 2 2 2 2 3 3 2 3 3
4 3 6 6 7 8 7 6 6 7 8 8 7 6 7 6 5 5 2 4 1 2 3 3 2 4 3 6 3 3 3 3 3 3 2 2 2 3 3 3 3 3 3 3
4 4 7 7 7 5 6 9 8 7 9 7 7 7 7 3 2 3 4 3 1 3 2 2 3 5 5 2 2 2 2 3 3 3 3 3 3 3 3 4 4 3 3 4
5 6 4 3 4 9 12 5 5 6 6 6 6 5 4 4 5 5 4 2 2 4 2 1 1 4 5 2 2 1 1 2 2 2 2 4 3 3 3 4 4 3 4 5
5 4 5 6 8 5 3 3 5 6 7 7 7 6 6 3 3 1 1 2 2 2 1 4 3 3 2 1 2 2 3 2 3 3 3 3 3 4 4 4 5 5 4 5
7 5 6 8 5 5 4 4 5 4 3 4 4 4 4 3 3 3 2 2 2 2 1 2 1 1 2 2 3 3 3 3 3 3 4 4 4 4 5 5 5 5 5 5
6 7 5 6 6 5 4 4 4 4 4 3 1 3 3 3 4 3 3 3 3 3 3 3 2 3 3 3 3 3 3 3 5 4 4 4 4 5 5 6 5 5 5 5
Wind_Direction
241 226 190 197 196 205 209 226 206 252 237 246 237 220 234 213 196 185 189 192 197 194 188 182 183 182 179 176 170 169 171 172 179 172 168 162 164 163 156 162 170 168 160 165
255 242 198 230 232 217 212 225 232 252 259 146 224 229 198 210 192 199 204 211 202 194 188 187 183 184 179 178 176 172 179 181 168 169 167 168 169 163 162 169 165 164 176 177
246 234 163 259 235 194 219 224 216 233 246 206 249 234 228 220 202 206 213 214 202 198 194 189 187 178 184 178 166 172 171 171 170 171 176 173 168 168 176 177 166 183 184 187
239 149 223 241 242 220 224 234 226 252 258 216 242 251 251 215 198 216 217 209 200 194 195 190 178 177 167 161 163 168 174 173 170 170 177 172 172 184 178 170 182 187 192 193
226 224 267 281 198 165 185 243 232 236 253 255 254 293 265 207 221 229 212 205 200 188 175 165 165 160 154 158 167 173 180 177 175 173 179 180 184 185 184 175 181 190 189 189
177 228 230 270 181 184 116 251 203 213 240 245 156 249 263 218 192 213 196 169 162 153 147 155 164 158 161 170 173 183 180 178 174 181 187 187 192 187 179 187 194 181 197 201
220 240 247 230 219 142 168 242 310 106 321 133 193 229 305 3 102 151 142 136 128 153 164 167 160 160 172 169 186 184 162 168 182 188 189 189 177 170 174 175 157 185 203 203
228 236 237 155 100 192 203 150 171 215 212 202 238 325 6 40 124 122 115 108 119 117 105 109 137 152 165 183 149 140 153 161 174 177 176 168 168 153 160 165 185 194 200 228
229 255 316 209 27 54 162 153 195 186 235 172 155 118 128 120 96 95 110 113 109 123 121 113 133 148 156 174 142 142 152 166 166 153 157 160 161 158 138 164 189 206 208 227
121 222 251 281 273 243 250 200 116 91 170 172 147 163 117 114 111 100 81 103 90 118 116 106 65 81 106 140 138 143 149 149 150 159 144 134 126 150 169 185 199 202 197 215
253 199 282 256 218 199 172 43 69 299 90 171 144 149 145 129 106 97 93 75 95 123 129 130 124 106 103 134 133 131 118 126 130 123 143 133 109 156 158 149 173 171 198 173
212 186 170 247 195 168 157 166 184 87 68 28 158 158 133 127 122 127 126 97 100 96 118 129 121 109 95 108 124 131 130 144 158 150 141 141 139 89 192 184 206 213 213 189
313 151 77 52 65 144 160 166 134 126 145 149 62 123 123 118 111 110 110 120 129 133 114 115 109 102 45 77 116 131 137 140 132 131 141 146 132 152 151 333 216 206 219 227
4 71 111 36 95 153 141 111 91 84 65 89 121 80 95 99 79 113 128 135 118 119 109 112 114 114 4 66 116 119 121 136 146 143 138 134 141 146 141 159 162 87 41 57
16 359 29 98 65 62 57 101 101 100 89 70 37 118 122 128 130 115 90 89 89 89 95 113 116 102 3 48 115 131 124 126 130 126 126 131 130 122 122 121 130 127 22 47
326 14 58 71 68 53 79 37 96 94 81 78 92 89 93 95 97 90 73 62 107 158 130 106 102 2 1 72 95 84 87 117 110 120 122 118 122 127 124 124 116 119 110 188
344 39 21 46 38 41 43 30 58 75 74 66 51 91 94 97 91 85 62 45 68 79 72 76 95 12 27 62 102 116 113 110 116 103 115 121 121 126 118 119 135 144 177 214
7 44 42 41 21 50 45 31 36 44 40 348 63 87 95 98 127 118 88 77 79 63 43 30 38 44 71 76 90 83 80 78 67 93 101 94 94 101 117 125 134 148 205 257
8 32 38 44 20 50 40 28 21 18 19 21 78 75 73 63 87 96 94 88 85 93 347 353 68 69 71 84 86 89 99 104 100 94 101 113 110 129 130 141 168 197 214 250
26 34 50 53 41 36 45 22 24 36 17 55 85 73 70 56 74 89 57 76 264 198 159 93 87 76 64 77 102 109 119 127 131 126 128 130 134 158 175 186 193 194 213 238
34 48 61 63 58 43 38 26 46 50 23 43 81 85 92 65 64 73 74 85 312 346 97 91 92 72 62 81 78 82 79 83 86 110 123 148 152 173 205 220 222 231 246 240
8 51 73 68 73 65 31 32 46 55 57 65 65 79 91 71 64 65 69 134 224 127 96 85 95 101 99 92 89 99 104 112 123 130 152 176 195 210 223 226 234 237 242 243
35 37 71 65 77 82 59 47 45 53 65 56 61 58 68 69 45 70 59 320 55 110 92 121 151 136 133 107 119 131 150 176 193 199 204 214 223 227 227 236 239 227 236 249
49 48 44 34 70 76 71 18 50 53 69 61 58 49 47 53 39 24 59 122 114 86 91 214 272 195 153 154 174 185 190 202 218 225 231 236 231 227 236 241 251 238 242 249
37 28 28 39 67 68 72 48 66 46 49 48 39 29 26 20 122 261 32 18 88 82 38 329 280 47 88 160 207 231 233 222 226 220 237 241 244 241 244 244 245 247 244 241
46 46 46 41 40 36 39 46 63 38 41 43 31 20 18 20 34 39 16 6 358 339 320 303 298 292 257 252 241 235 235 237 238 238 237 241 244 242 243 246 244 242 240 242
45 39 33 46 31 25 34 40 51 22 18 38 18 337 352 359 5 10 356 342 331 317 302 295 292 282 252 244 239 239 240 240 245 245 240 248 244 241 244 245 243 243 244 240